Tracking 17938 objects as of 22-February-2017
HD Live streaming from Space Station
objects crossing your sky now

RIGIDSPHERE 2 (LCS 4)

Track RIGIDSPHERE 2 (LCS 4) now!
10-day predictions
RIGIDSPHERE 2 (LCS 4) is classified as:


NORAD ID: 5398
Int'l Code: 1971-067E
Perigee: 742.7 km
Apogee: 831.4 km
Inclination: 87.6 °
Period: 100.5 minutes
Semi major axis: 7158 km
RCS: 0.9311 m2 (medium)
Launch date: August 7, 1971
Source: United States (US)
Launch site: AIR FORCE WESTERN TEST RANGE (AFWTR)
Your satellite tracking list
Your tracking list is empty





NASA's NSSDC Master Catalog

Two Line Element Set (TLE):
1 05398U 71067E   17052.50425173  .00000206  00000-0  66770-4 0  9996
2 05398  87.6277 198.2275 0061929 308.6628  50.9036 14.33542579386214
Source of the keplerian elements: AFSPC